Meteo pe oră la Dziadowki

Astăzi, 3 Martie, Miercuri

Timp Temperatura Precipitaţii Vânt Presiune Umiditate
00:00 +3°C° 0 mm 1 m/s 751 mmHg 88%
01:00 +3°C° 0 mm 1 m/s 751 mmHg 88%
02:00 +3°C° 0 mm 1 m/s 751 mmHg 88%
03:00 +3°C° 0 mm 1 m/s 750 mmHg 88%
04:00 +3°C° 0 mm 1 m/s 750 mmHg 88%
05:00 +3°C° 0 mm 1 m/s 750 mmHg 88%
06:00 +3°C° 0 mm 1 m/s 750 mmHg 88%
07:00 +3°C° 0 mm 1 m/s 750 mmHg 87%
08:00 +5°C° 0 mm 1 m/s 750 mmHg 80%
09:00 +6°C° 0 mm 1 m/s 749 mmHg 73%
10:00 +8°C° 0 mm 1 m/s 749 mmHg 66%
11:00 +9°C° 0 mm 1 m/s 749 mmHg 61%
12:00 +10°C° 0 mm 2 m/s 748 mmHg 56%
13:00 +12°C° 0 mm 2 m/s 748 mmHg 51%
14:00 +12°C° 0 mm 1 m/s 747 mmHg 52%
15:00 +12°C° 0 mm 1 m/s 746 mmHg 52%
16:00 +12°C° 0 mm 1 m/s 746 mmHg 53%
17:00 +10°C° 0 mm 2 m/s 745 mmHg 56%
18:00 +8°C° 0 mm 2 m/s 745 mmHg 60%
19:00 +7°C° 0 mm 3 m/s 745 mmHg 63%
20:00 +5°C° 0 mm 3 m/s 745 mmHg 66%
21:00 +5°C° 0 mm 4 m/s 744 mmHg 69%
22:00 +4°C° 0 mm 4 m/s 744 mmHg 72%
23:00 +4°C° 0 mm 4 m/s 743 mmHg 75%

Mâine, 4 Martie, Joi

Timp Temperatura Precipitaţii Vânt Presiune Umiditate
00:00 +4°C° 0 mm 4 m/s 743 mmHg 78%
01:00 +3°C° 0 mm 4 m/s 742 mmHg 82%
02:00 +3°C° 0 mm 4 m/s 742 mmHg 82%
03:00 +3°C° 0 mm 4 m/s 741 mmHg 81%
04:00 +3°C° 0 mm 4 m/s 740 mmHg 81%
05:00 +2°C° 0 mm 5 m/s 740 mmHg 81%
06:00 +2°C° 0 mm 5 m/s 740 mmHg 82%
07:00 +2°C° 0 mm 5 m/s 740 mmHg 82%
08:00 +4°C° 0 mm 6 m/s 739 mmHg 79%
09:00 +5°C° 0 mm 6 m/s 739 mmHg 75%
10:00 +6°C° 0 mm 7 m/s 739 mmHg 72%
11:00 +8°C° 0 mm 7 m/s 738 mmHg 66%
12:00 +9°C° 0 mm 7 m/s 738 mmHg 60%
13:00 +10°C° 0 mm 7 m/s 738 mmHg 54%
14:00 +10°C° 0 mm 7 m/s 737 mmHg 55%
15:00 +10°C° 0 mm 6 m/s 737 mmHg 56%
16:00 +9°C° 0 mm 6 m/s 736 mmHg 57%
17:00 +8°C° 0.2 mm 5 m/s 736 mmHg 65%
18:00 +7°C° 0.2 mm 5 m/s 736 mmHg 72%
19:00 +6°C° 0.2 mm 4 m/s 736 mmHg 80%
20:00 +5°C° 0.3 mm 4 m/s 736 mmHg 83%
21:00 +3°C° 0.3 mm 4 m/s 736 mmHg 86%
22:00 +2°C° 0.3 mm 3 m/s 736 mmHg 89%
23:00 +2°C° 0.3 mm 3 m/s 736 mmHg 91%

Poimâine, 5 Martie, Vineri

Timp Temperatura Precipitaţii Vânt Presiune Umiditate
00:00 +1°C° 0.3 mm 3 m/s 736 mmHg 92%
01:00 -1°C° 0.3 mm 4 m/s 736 mmHg 93%
02:00 -1°C° 0.9 mm 4 m/s 736 mmHg 93%
03:00 -2°C° 0.9 mm 4 m/s 736 mmHg 93%
04:00 -2°C° 0.9 mm 4 m/s 736 mmHg 94%
05:00 -2°C° 0.3 mm 4 m/s 737 mmHg 91%
06:00 -3°C° 0.3 mm 4 m/s 738 mmHg 88%
07:00 -3°C° 0.3 mm 4 m/s 738 mmHg 84%
08:00 -3°C° 0 mm 4 m/s 739 mmHg 81%
09:00 -2°C° 0 mm 4 m/s 739 mmHg 77%
10:00 -1°C° 0 mm 4 m/s 740 mmHg 73%
11:00 -1°C° 0 mm 4 m/s 740 mmHg 66%
12:00 0°C° 0 mm 4 m/s 740 mmHg 59%
13:00 0°C° 0 mm 4 m/s 741 mmHg 52%
14:00 0°C° 0 mm 4 m/s 741 mmHg 52%
15:00 0°C° 0 mm 4 m/s 741 mmHg 51%
16:00 0°C° 0 mm 4 m/s 741 mmHg 50%
17:00 0°C° 0 mm 3 m/s 742 mmHg 55%
18:00 -1°C° 0 mm 3 m/s 743 mmHg 60%
19:00 -1°C° 0 mm 2 m/s 743 mmHg 65%
20:00 -2°C° 0 mm 2 m/s 744 mmHg 66%
21:00 -2°C° 0 mm 2 m/s 744 mmHg 68%
22:00 -2°C° 0 mm 2 m/s 744 mmHg 69%
23:00 -2°C° 0 mm 2 m/s 745 mmHg 70%

6 Martie, Sâmbătă

Timp Temperatura Precipitaţii Vânt Presiune Umiditate
00:00 -2°C° 0 mm 2 m/s 745 mmHg 71%
01:00 -2°C° 0 mm 3 m/s 746 mmHg 72%
02:00 -2°C° 0 mm 3 m/s 746 mmHg 72%
03:00 -2°C° 0 mm 3 m/s 746 mmHg 73%
04:00 -4°C° 0 mm 4 m/s 747 mmHg 73%
05:00 -4°C° 0 mm 4 m/s 747 mmHg 72%
06:00 -4°C° 0 mm 4 m/s 748 mmHg 71%
07:00 -4°C° 0 mm 4 m/s 748 mmHg 70%
08:00 -3°C° 0 mm 4 m/s 749 mmHg 63%
09:00 -3°C° 0 mm 4 m/s 749 mmHg 56%
10:00 -2°C° 0 mm 4 m/s 749 mmHg 48%
11:00 -2°C° 0 mm 4 m/s 749 mmHg 47%
12:00 -1°C° 0 mm 4 m/s 749 mmHg 45%
13:00 -1°C° 0 mm 4 m/s 749 mmHg 44%
14:00 -1°C° 0 mm 4 m/s 749 mmHg 45%
15:00 -1°C° 0 mm 4 m/s 749 mmHg 47%
16:00 -1°C° 0 mm 4 m/s 749 mmHg 48%
17:00 -2°C° 0 mm 4 m/s 749 mmHg 53%
18:00 -1°C° 0 mm 3 m/s 749 mmHg 57%
19:00 -2°C° 0 mm 3 m/s 749 mmHg 62%
20:00 -2°C° 0 mm 3 m/s 749 mmHg 62%
21:00 -3°C° 0 mm 4 m/s 748 mmHg 61%
22:00 -3°C° 0 mm 4 m/s 748 mmHg 61%
23:00 -3°C° 0 mm 4 m/s 748 mmHg 60%

7 Martie, Duminică

Timp Temperatura Precipitaţii Vânt Presiune Umiditate
00:00 -4°C° 0 mm 5 m/s 748 mmHg 59%
01:00 -4°C° 0 mm 5 m/s 747 mmHg 58%
02:00 -4°C° 0 mm 5 m/s 746 mmHg 57%
03:00 -4°C° 0 mm 5 m/s 746 mmHg 56%
04:00 -4°C° 0 mm 6 m/s 745 mmHg 55%
05:00 -4°C° 0 mm 6 m/s 745 mmHg 54%
06:00 -4°C° 0 mm 6 m/s 745 mmHg 53%
07:00 -4°C° 0 mm 6 m/s 744 mmHg 51%
08:00 -3°C° 0 mm 7 m/s 744 mmHg 47%
09:00 -2°C° 0 mm 7 m/s 744 mmHg 43%
10:00 -1°C° 0 mm 7 m/s 743 mmHg 40%
11:00 0°C° 0 mm 7 m/s 743 mmHg 39%
12:00 +2°C° 0 mm 7 m/s 742 mmHg 39%
13:00 +2°C° 0 mm 7 m/s 742 mmHg 38%
14:00 +2°C° 0 mm 7 m/s 741 mmHg 41%
15:00 +2°C° 0 mm 6 m/s 740 mmHg 43%
16:00 +2°C° 0 mm 6 m/s 740 mmHg 46%
17:00 +1°C° 0 mm 5 m/s 740 mmHg 51%
18:00 -1°C° 0 mm 5 m/s 739 mmHg 55%
19:00 -2°C° 0 mm 5 m/s 739 mmHg 60%
20:00 -2°C° 0 mm 4 m/s 739 mmHg 61%
21:00 -2°C° 0 mm 4 m/s 739 mmHg 63%
22:00 -2°C° 0 mm 4 m/s 739 mmHg 65%
23:00 -3°C° 0 mm 4 m/s 739 mmHg 71%

8 Martie, Luni

Timp Temperatura Precipitaţii Vânt Presiune Umiditate
00:00 -3°C° 0 mm 4 m/s 739 mmHg 77%
01:00 -3°C° 0 mm 4 m/s 739 mmHg 83%
02:00 -4°C° 0.3 mm 4 m/s 739 mmHg 85%
03:00 -5°C° 0.3 mm 5 m/s 739 mmHg 88%
04:00 -5°C° 0.3 mm 5 m/s 739 mmHg 90%
05:00 -4°C° 0.1 mm 4 m/s 740 mmHg 86%
06:00 -5°C° 0.1 mm 4 m/s 741 mmHg 82%
07:00 -5°C° 0.1 mm 3 m/s 741 mmHg 79%
08:00 -4°C° 0 mm 4 m/s 742 mmHg 70%
09:00 -4°C° 0 mm 4 m/s 742 mmHg 61%
10:00 -4°C° 0 mm 5 m/s 743 mmHg 52%
11:00 -4°C° 0 mm 5 m/s 743 mmHg 52%
12:00 -2°C° 0 mm 5 m/s 743 mmHg 51%
13:00 -2°C° 0 mm 5 m/s 744 mmHg 51%
14:00 -2°C° 0 mm 5 m/s 744 mmHg 52%
15:00 -2°C° 0 mm 5 m/s 744 mmHg 53%
16:00 -2°C° 0 mm 5 m/s 744 mmHg 55%
17:00 -3°C° 0 mm 4 m/s 745 mmHg 61%
18:00 -4°C° 0 mm 3 m/s 745 mmHg 68%
19:00 -4°C° 0 mm 2 m/s 746 mmHg 74%
20:00 -4°C° 0 mm 2 m/s 746 mmHg 74%
21:00 -4°C° 0 mm 2 m/s 746 mmHg 74%
22:00 -3°C° 0 mm 1 m/s 747 mmHg 74%
23:00 -3°C° 0 mm 1 m/s 747 mmHg 73%
Arată mai mult

Formular de consimțământ

Meteoprog și furnizorii noștri de servicii pot stoca și accesa date personale, precum cookies, identificatori de dispozitiv sau alte tehnologii similare pe dispozitivul dumneavoastră și procesa astfel de date pentru a personaliza conținutul și reclamele, dar și pentru a oferi caracteristici de social media și pentru a analiza traficul.

  • Stocarea și/sau accesarea informațiilor pe dispozitivul dumneavoastră

    Cookies, identificatori de dispozitiv sau alte informații pot fi stocate sau accesate pe dispozitiv în scopurile indicate mai sus.

  • Reclame și conținut personalizat, evaluarea reclamelor și a conținutului, informații despre audiențe și dezvoltarea produselor

    Reclamele și conținutul pot fi personalizate pe baza unui profil. Pot fi adăugate date suplimentare pentru a personaliza mai bine reclamele și conținutul. Performanța reclamelor și conținutului poate fi măsurată. Pot fi obținute informații despre utilizatorii care au văzut reclamele și conținutul. Aceste date pot fi utilizate pentru a dezvolta sau îmbunătăți experiența utilizatorilor, sistemele și software-ul.

Dând clic pe ‘Sunt de acord’, permiteți utilizarea cookie-urilor menționate, a identificatorilor de dispozitiv, balizelor web sau altor tehnologii similare. Setările pot fi modificate din browser-ul dispozitivului dumneavoastră.

În anumite scopuri, interesele legitime pot prima asupra consimțământului. Puteți citi mai multe informații în acest sens în Politica privind Confidențialitatea Datelor și Cookie.